N571DW SADF-ZZZZ

Flight info

Callsign N571DW
Flight time N/A
Altitude 7000
Route DCT EZE19 DCT LANDA N785 GUA DCT
Aircraft C208/L-SBDFGRY/LB2

Departure

Time 2026-04-17 14:41
Airport San Fernando Airport (SADF)

Arrival

Time N/A
Airport ZZZZ
Time Latitude Longitude Altitude Speed Heading
2026-04-17 14:31 -34.45386 -58.58052 26 ft 0 kts 333°
2026-04-17 14:31 -34.45399 -58.58031 27 ft 0 kts 244°
2026-04-17 14:37 -34.45402 -58.58039 27 ft 4 kts 252°
2026-04-17 14:37 -34.45380 -58.58057 28 ft 5 kts 335°
2026-04-17 14:37 -34.45349 -58.58016 26 ft 12 kts 67°
2026-04-17 14:38 -34.45283 -58.58004 26 ft 10 kts 329°
2026-04-17 14:38 -34.45242 -58.58033 26 ft 4 kts 330°
2026-04-17 14:38 -34.45212 -58.58054 27 ft 8 kts 330°
2026-04-17 14:38 -34.45148 -58.58099 26 ft 13 kts 327°
2026-04-17 14:39 -34.45058 -58.58165 26 ft 16 kts 333°
2026-04-17 14:39 -34.44977 -58.58221 26 ft 11 kts 329°
2026-04-17 14:39 -34.44904 -58.58276 26 ft 14 kts 324°
2026-04-17 14:39 -34.44854 -58.58377 26 ft 15 kts 240°
2026-04-17 14:40 -34.44937 -58.58478 26 ft 20 kts 225°
2026-04-17 14:40 -34.45114 -58.58687 28 ft 56 kts 223°
2026-04-17 14:40 -34.45480 -58.59119 75 ft 82 kts 229°
2026-04-17 14:40 -34.45899 -58.59707 222 ft 93 kts 233°
2026-04-17 14:41 -34.46175 -58.60087 319 ft 96 kts 230°
2026-04-17 14:41 -34.46796 -58.60943 499 ft 111 kts 229°
2026-04-17 14:41 -34.47187 -58.61491 633 ft 112 kts 230°
2026-04-17 14:41 -34.47647 -58.62172 776 ft 110 kts 237°
2026-04-17 14:42 -34.47631 -58.63073 933 ft 111 kts 293°
2026-04-17 14:42 -34.47103 -58.63727 1092 ft 114 kts 329°
2026-04-17 14:42 -34.46285 -58.63801 1276 ft 128 kts 12°
2026-04-17 14:42 -34.45366 -58.63546 1481 ft 143 kts 10°
2026-04-17 14:43 -34.44364 -58.63319 1698 ft 150 kts
2026-04-17 14:43 -34.43314 -58.63088 1894 ft 156 kts
2026-04-17 14:43 -34.42223 -58.62848 2092 ft 162 kts
2026-04-17 14:43 -34.41101 -58.62607 2277 ft 160 kts
2026-04-17 14:44 -34.40008 -58.62375 2457 ft 159 kts
2026-04-17 14:44 -34.38916 -58.62143 2621 ft 160 kts
2026-04-17 14:44 -34.37819 -58.61907 2787 ft 160 kts
2026-04-17 14:44 -34.36717 -58.61669 2961 ft 161 kts 10°
2026-04-17 14:45 -34.35601 -58.61431 3133 ft 163 kts
2026-04-17 14:45 -34.34476 -58.61191 3305 ft 165 kts 10°
2026-04-17 14:45 -34.33338 -58.60945 3476 ft 166 kts 11°
2026-04-17 14:45 -34.32186 -58.60697 3645 ft 167 kts 11°
2026-04-17 14:46 -34.31044 -58.60451 3811 ft 167 kts 11°
2026-04-17 14:46 -34.29899 -58.60205 3992 ft 167 kts 11°
2026-04-17 14:46 -34.28751 -58.59961 4164 ft 168 kts 11°
2026-04-17 14:46 -34.27601 -58.59714 4337 ft 168 kts 11°
2026-04-17 14:47 -34.26450 -58.59467 4517 ft 168 kts 12°
2026-04-17 14:47 -34.25306 -58.59222 4690 ft 170 kts 12°
2026-04-17 14:47 -34.24134 -58.58971 4864 ft 171 kts 12°
2026-04-17 14:47 -34.22958 -58.58720 5037 ft 173 kts 12°
2026-04-17 14:48 -34.21759 -58.58462 5212 ft 174 kts 12°
2026-04-17 14:48 -34.20569 -58.58206 5369 ft 174 kts 12°
2026-04-17 14:48 -34.19367 -58.57951 5547 ft 174 kts 13°
2026-04-17 14:48 -34.18177 -58.57693 5719 ft 174 kts 13°
2026-04-17 14:49 -34.16981 -58.57435 5896 ft 176 kts 13°
2026-04-17 14:49 -34.15768 -58.57181 6070 ft 177 kts 13°
2026-04-17 14:49 -34.14561 -58.56926 6245 ft 175 kts 14°
2026-04-17 14:49 -34.13364 -58.56669 6417 ft 174 kts 14°
2026-04-17 14:50 -34.12146 -58.56445 6578 ft 178 kts
2026-04-17 14:50 -34.10925 -58.56511 6740 ft 177 kts 357°
2026-04-17 14:50 -34.09697 -58.56582 6878 ft 177 kts 359°
2026-04-17 14:50 -34.08425 -58.56635 6896 ft 186 kts 359°
2026-04-17 14:51 -34.07114 -58.56696 6901 ft 190 kts 359°
2026-04-17 14:51 -34.05787 -58.56768 6899 ft 191 kts 358°
2026-04-17 14:51 -34.04461 -58.56834 6902 ft 190 kts 358°
2026-04-17 14:51 -34.03136 -58.56897 6898 ft 191 kts 358°
2026-04-17 14:52 -34.01813 -58.56964 6903 ft 190 kts 358°
2026-04-17 14:52 -34.00487 -58.57033 6901 ft 191 kts 358°
2026-04-17 14:52 -33.99156 -58.57096 6894 ft 190 kts 358°
2026-04-17 14:52 -33.97853 -58.57156 6892 ft 190 kts 358°
2026-04-17 14:53 -33.96514 -58.57225 6900 ft 191 kts 358°
2026-04-17 14:53 -33.95181 -58.57290 6896 ft 191 kts 358°
2026-04-17 14:53 -33.93857 -58.57354 6891 ft 190 kts 358°
2026-04-17 14:53 -33.92539 -58.57419 6890 ft 189 kts 358°
2026-04-17 14:54 -33.91223 -58.57485 6888 ft 189 kts 358°
2026-04-17 14:54 -33.89915 -58.57546 6889 ft 188 kts 359°
2026-04-17 14:54 -33.88593 -58.57598 6885 ft 190 kts 359°
2026-04-17 14:54 -33.87284 -58.57658 6889 ft 189 kts 359°
2026-04-17 14:55 -33.85942 -58.57717 6890 ft 190 kts 359°
2026-04-17 14:55 -33.84641 -58.57772 6885 ft 190 kts 359°
2026-04-17 14:55 -33.83302 -58.57832 6887 ft 189 kts 358°
2026-04-17 14:55 -33.81982 -58.57889 6885 ft 190 kts 359°
2026-04-17 14:56 -33.80643 -58.57946 6884 ft 189 kts 358°
2026-04-17 14:56 -33.79354 -58.58004 6887 ft 188 kts 358°
2026-04-17 14:56 -33.78037 -58.58063 6886 ft 189 kts 358°
2026-04-17 14:56 -33.76713 -58.58119 6890 ft 189 kts 358°
2026-04-17 14:57 -33.75394 -58.58177 6890 ft 190 kts 358°
2026-04-17 14:57 -33.74063 -58.58234 6887 ft 191 kts 358°
2026-04-17 14:57 -33.72797 -58.58289 6890 ft 190 kts 358°
2026-04-17 14:57 -33.71377 -58.58350 6883 ft 190 kts 358°
2026-04-17 14:58 -33.70050 -58.58410 6887 ft 190 kts 358°
2026-04-17 14:58 -33.68744 -58.58468 6886 ft 190 kts 359°
2026-04-17 14:58 -33.67389 -58.58524 6887 ft 189 kts 358°
2026-04-17 14:58 -33.66079 -58.58581 6888 ft 189 kts 358°
2026-04-17 14:59 -33.64757 -58.58641 6885 ft 189 kts 358°
2026-04-17 14:59 -33.63442 -58.58698 6884 ft 189 kts 358°
2026-04-17 14:59 -33.62136 -58.58754 6884 ft 188 kts 358°
2026-04-17 14:59 -33.60828 -58.58810 6880 ft 188 kts 358°
2026-04-17 15:00 -33.59940 -58.58849 6887 ft 188 kts 358°
2026-04-17 15:00 -33.58631 -58.58905 6886 ft 188 kts 358°
2026-04-17 15:00 -33.57326 -58.58963 6885 ft 187 kts 358°
2026-04-17 15:00 -33.56032 -58.59021 6885 ft 186 kts 358°
2026-04-17 15:01 -33.54736 -58.59074 6887 ft 187 kts 358°
2026-04-17 15:01 -33.53434 -58.59133 6890 ft 188 kts 358°
2026-04-17 15:01 -33.52202 -58.59183 6888 ft 187 kts 358°
2026-04-17 15:01 -33.50892 -58.59241 6889 ft 189 kts 358°
2026-04-17 15:02 -33.49558 -58.59294 6891 ft 190 kts 358°
2026-04-17 15:02 -33.48244 -58.59355 6888 ft 188 kts 358°
2026-04-17 15:02 -33.46940 -58.59415 6891 ft 188 kts 358°
2026-04-17 15:02 -33.45629 -58.59472 6885 ft 187 kts 358°
2026-04-17 15:03 -33.44335 -58.59525 6886 ft 186 kts 359°
2026-04-17 15:03 -33.43036 -58.59581 6887 ft 186 kts 358°
2026-04-17 15:03 -33.41735 -58.59637 6885 ft 187 kts 358°
2026-04-17 15:03 -33.40425 -58.59693 6885 ft 188 kts 358°
2026-04-17 15:04 -33.39118 -58.59751 6887 ft 188 kts 358°
2026-04-17 15:04 -33.37815 -58.59809 6888 ft 187 kts 358°
2026-04-17 15:04 -33.36511 -58.59863 6889 ft 187 kts 358°
2026-04-17 15:04 -33.35209 -58.59920 6891 ft 186 kts 359°
2026-04-17 15:05 -33.33910 -58.59976 6888 ft 186 kts 359°
2026-04-17 15:05 -33.32626 -58.60031 6890 ft 186 kts 359°
2026-04-17 15:05 -33.31336 -58.60087 6890 ft 185 kts 358°
2026-04-17 15:05 -33.30047 -58.60143 6897 ft 185 kts 358°
2026-04-17 15:06 -33.28764 -58.60198 6897 ft 185 kts 359°
2026-04-17 15:06 -33.27480 -58.60253 6897 ft 184 kts 358°
2026-04-17 15:06 -33.26199 -58.60309 6898 ft 184 kts 359°
2026-04-17 15:06 -33.24919 -58.60365 6897 ft 184 kts 358°
2026-04-17 15:07 -33.23636 -58.60420 6891 ft 184 kts 358°
2026-04-17 15:07 -33.22349 -58.60474 6898 ft 185 kts 358°
2026-04-17 15:07 -33.21064 -58.60529 6899 ft 185 kts 358°
2026-04-17 15:07 -33.19782 -58.60585 6903 ft 184 kts 358°
2026-04-17 15:08 -33.18499 -58.60640 6902 ft 184 kts 358°
2026-04-17 15:08 -33.17218 -58.60695 6906 ft 184 kts 358°
2026-04-17 15:08 -33.15934 -58.60750 6902 ft 185 kts 358°
2026-04-17 15:08 -33.14648 -58.60805 6905 ft 185 kts 358°
2026-04-17 15:09 -33.13362 -58.60860 6906 ft 185 kts 358°
2026-04-17 15:09 -33.12056 -58.60918 6905 ft 184 kts 358°
2026-04-17 15:09 -33.10777 -58.60971 6905 ft 184 kts 358°
2026-04-17 15:09 -33.09499 -58.61026 6881 ft 183 kts 358°
2026-04-17 15:10 -33.08223 -58.61081 6875 ft 183 kts 358°
2026-04-17 15:10 -33.06971 -58.60890 6879 ft 181 kts 23°
2026-04-17 15:10 -33.05812 -58.60302 6880 ft 181 kts 27°
2026-04-17 15:11 -33.03494 -58.59128 6886 ft 181 kts 26°
2026-04-17 15:11 -33.02339 -58.58558 6890 ft 182 kts 26°
2026-04-17 15:11 -33.01151 -58.57971 6889 ft 183 kts 26°
2026-04-17 15:11 -32.99979 -58.57391 6887 ft 182 kts 26°
2026-04-17 15:12 -32.98804 -58.56810 6890 ft 183 kts 26°
2026-04-17 15:12 -32.97629 -58.56229 6889 ft 183 kts 26°
2026-04-17 15:12 -32.96449 -58.55646 6883 ft 183 kts 26°
2026-04-17 15:12 -32.95276 -58.55067 6888 ft 182 kts 26°
2026-04-17 15:13 -32.94104 -58.54488 6883 ft 182 kts 26°
2026-04-17 15:13 -32.92933 -58.53911 6884 ft 182 kts 26°
2026-04-17 15:13 -32.91767 -58.53335 6883 ft 181 kts 26°
2026-04-17 15:13 -32.90599 -58.52758 6886 ft 182 kts 26°
2026-04-17 15:14 -32.89432 -58.52183 6881 ft 181 kts 25°
2026-04-17 15:14 -32.88267 -58.51609 6883 ft 181 kts 26°
2026-04-17 15:14 -32.87103 -58.51034 6883 ft 181 kts 26°
2026-04-17 15:14 -32.85946 -58.50464 6885 ft 181 kts 26°
2026-04-17 15:15 -32.84770 -58.49883 6815 ft 186 kts 26°
2026-04-17 15:15 -32.83559 -58.49283 6678 ft 191 kts 25°
2026-04-17 15:15 -32.82320 -58.48674 6527 ft 194 kts 25°
2026-04-17 15:15 -32.81062 -58.48055 6367 ft 196 kts 25°
2026-04-17 15:16 -32.79800 -58.47435 6205 ft 197 kts 25°
2026-04-17 15:16 -32.78534 -58.46813 6034 ft 197 kts 25°
2026-04-17 15:16 -32.77262 -58.46188 5861 ft 198 kts 25°
2026-04-17 15:16 -32.75990 -58.45562 5690 ft 198 kts 25°
2026-04-17 15:17 -32.74721 -58.44939 5519 ft 197 kts 25°
2026-04-17 15:17 -32.73458 -58.44318 5349 ft 196 kts 24°
2026-04-17 15:17 -32.72197 -58.43698 5180 ft 196 kts 24°
2026-04-17 15:17 -32.70941 -58.43082 5000 ft 195 kts 24°
2026-04-17 15:18 -32.69691 -58.42468 4835 ft 194 kts 24°
2026-04-17 15:18 -32.68441 -58.41855 4666 ft 194 kts 24°
2026-04-17 15:18 -32.67195 -58.41243 4489 ft 194 kts 24°
2026-04-17 15:18 -32.65949 -58.40630 4317 ft 194 kts 24°
2026-04-17 15:19 -32.64704 -58.40022 4143 ft 193 kts 24°
2026-04-17 15:19 -32.63458 -58.39411 3968 ft 193 kts 23°
2026-04-17 15:19 -32.62222 -58.38804 3795 ft 192 kts 23°
2026-04-17 15:19 -32.60992 -58.38203 3624 ft 191 kts 23°
2026-04-17 15:20 -32.59765 -58.37601 3451 ft 191 kts 23°
2026-04-17 15:20 -32.58535 -58.37001 3282 ft 190 kts 23°
2026-04-17 15:20 -32.57318 -58.36403 3110 ft 189 kts 22°
2026-04-17 15:20 -32.56092 -58.35802 2933 ft 190 kts 22°
2026-04-17 15:21 -32.54871 -58.35205 2759 ft 189 kts 23°
2026-04-17 15:21 -32.53651 -58.34611 2580 ft 189 kts 22°
2026-04-17 15:21 -32.52433 -58.34017 2420 ft 191 kts 23°
2026-04-17 15:21 -32.51204 -58.33411 2217 ft 192 kts 23°
2026-04-17 15:22 -32.49972 -58.32818 2005 ft 190 kts 22°
2026-04-17 15:22 -32.48735 -58.32267 1921 ft 185 kts 10°
2026-04-17 15:22 -32.47541 -58.31737 1886 ft 183 kts 33°
2026-04-17 15:22 -32.46552 -58.30869 1800 ft 167 kts 38°
2026-04-17 15:23 -32.45605 -58.30374 1830 ft 143 kts
2026-04-17 15:23 -32.44976 -58.30548 1755 ft 135 kts 324°
2026-04-17 15:23 -32.44500 -58.31398 1708 ft 117 kts 271°
2026-04-17 15:23 -32.44602 -58.32349 1447 ft 117 kts 241°
2026-04-17 15:24 -32.45055 -58.32828 1152 ft 116 kts 200°
2026-04-17 15:25 -32.45457 -58.32958 1066 ft 110 kts 197°
2026-04-17 15:25 -32.45864 -58.33088 1005 ft 105 kts 196°
2026-04-17 15:25 -32.46264 -58.33193 956 ft 103 kts 183°
2026-04-17 15:26 -32.46788 -58.32649 908 ft 116 kts 107°
2026-04-17 15:26 -32.46554 -58.31714 846 ft 122 kts 59°
2026-04-17 15:26 -32.46006 -58.30940 916 ft 115 kts 47°
2026-04-17 15:26 -32.45293 -58.30772 921 ft 110 kts 321°
2026-04-17 15:27 -32.45040 -58.31512 880 ft 95 kts 244°
2026-04-17 15:27 -32.45551 -58.31899 752 ft 91 kts 195°
2026-04-17 15:27 -32.46090 -58.31653 653 ft 96 kts 123°
2026-04-17 15:27 -32.45806 -58.31016 606 ft 100 kts
2026-04-17 15:28 -32.45269 -58.31205 561 ft 70 kts 242°
2026-04-17 15:28 -32.45668 -58.31394 448 ft 70 kts 238°
2026-04-17 15:28 -32.45454 -58.31661 266 ft 103 kts 25°
2026-04-17 15:28 -32.44823 -58.31535 387 ft 88 kts 357°
2026-04-17 15:29 -32.44184 -58.31525 460 ft 95 kts 14°
2026-04-17 15:29 -32.43866 -58.30887 522 ft 90 kts 109°
2026-04-17 15:29 -32.44334 -58.30419 394 ft 97 kts 173°
2026-04-17 15:29 -32.44947 -58.30495 174 ft 86 kts 192°
2026-04-17 15:30 -32.45433 -58.30648 116 ft 55 kts 195°
2026-04-17 15:30 -32.45665 -58.30725 123 ft 18 kts 195°
2026-04-17 15:30 -32.45746 -58.30748 123 ft 10 kts 218°
2026-04-17 15:30 -32.45773 -58.30826 125 ft 8 kts 254°
2026-04-17 15:31 -32.45786 -58.30879 126 ft 6 kts 253°
2026-04-17 15:31 -32.45788 -58.30917 128 ft 7 kts 24°
2026-04-17 15:31 -32.45779 -58.30912 128 ft 0 kts 24°